TJS-3

Last updated on Thu Nov 21 2024 00:02:44 GMT+0000 (Coordinated Universal Time)

1 43874U 18110A 24325.66888865 -.00000037 00000+0 00000+0 0 9997 2 43874 1.0589 87.2428 0018475 1.0074 23.4054 1.00159628 21732
UTC large
Height (km)
Speed (km/s)
/
Latitude / Longitude
Inclination (degrees)
Orbital Period (minutes)
Azimuth
Elevation
Range (km)
Doppler Factor

Next 0 passes for location: London (51.5072 / 0.1276)

Sorry there are no passes over London.